Location: Baia Mare
(47.6567°N, 23.5850°E)
Time: 13:45:21
(UTC+03:00)

ISS - Pass Details

Date: 22 July 2019
Orbit: 409 x 418 km, 51.6° (Epoch: 21 July)

Event Time Altitude Azimuth Distance (km) Brightness Sun altitude
Rises 02:26:49 0° 293° (WNW) 2,350 0.2 -20.9°
Reaches altitude 10° 02:28:56 10° 289° (WNW) 1,483 -0.9 -20.8°
Enters shadow 02:29:25 13° 288° (WNW) 1,294 -1.3 -20.8°
